GW2066 Weather Reports


time (UTC)temp
C
wind
direction
speed
KPH
gust
KPH
rain 1hr
cm
rain 24hr
cm
rain mn
cm
humidity
%
barometer
mb
20260906113127 21 76 8.0 12.9 0.00 0.00 0.00 86 1018.0
20260906112626 21 52 6.4 8.0 0.00 0.00 0.00 86 1018.0
20260906112123 21 334 1.6 1.6 0.00 0.00 0.00 86 1017.9
20260906111621 21 56 4.8 8.0 0.00 0.00 0.00 86 1017.7
20260906111117 21 58 4.8 8.0 0.00 0.00 0.00 86 1017.7
20260906110618 21 32 3.2 3.2 0.00 0.00 0.00 86 1017.8
20260906110118 21 29 4.8 4.8 0.00 0.00 0.00 86 1017.6
20260906105612 21 93 6.4 9.7 0.00 0.00 0.00 86 1017.8
20260906105108 21 54 6.4 8.0 0.00 0.00 0.00 86 1017.7
20260906104607 21 14 3.2 3.2 0.00 0.00 0.00 86 1017.8
20260906104101 22 40 1.6 3.2 0.00 0.00 0.00 86 1017.5
20260906103600 22 35 4.8 4.8 0.00 0.00 0.00 86 1017.5
20260906103055 22 40 4.8 4.8 0.00 0.00 0.00 85 1017.4
20260906102555 22 49 4.8 8.0 0.00 0.00 0.00 85 1017.3
20260906102050 22 30 0.0 1.6 0.00 0.00 0.00 85 1017.2
20260906101544 22 49 3.2 4.8 0.00 0.00 0.00 85 1017.3
20260906101039 22 45 4.8 4.8 0.00 0.00 0.00 84 1017.2
20260906100536 22 36 1.6 3.2 0.00 0.00 0.00 84 1017.4
20260906100035 22 63 8.0 11.3 0.00 0.00 0.00 84 1017.4
20260906095530 22 43 4.8 8.0 0.00 0.00 0.00 84 1017.1
20260906095025 22 54 1.6 3.2 0.00 0.00 0.00 84 1017.2
20260906094524 22 43 3.2 4.8 0.00 0.00 0.00 84 1017.0
20260906094020 22 50 3.2 4.8 0.00 0.00 0.00 83 1017.0
20260906093516 22 39 1.6 1.6 0.00 0.00 0.00 83 1016.9
20260906093016 22 48 4.8 8.0 0.00 0.00 0.00 83 1017.2
20260906092511 22 68 4.8 8.0 0.00 0.00 0.00 83 1017.0
20260906092006 22 54 3.2 3.2 0.00 0.00 0.00 83 1017.0
20260906091502 22 58 6.4 9.7 0.00 0.00 0.00 82 1017.1
20260906090958 22 51 4.8 8.0 0.00 0.00 0.00 82 1016.9
20260906090453 22 80 3.2 8.0 0.00 0.00 0.00 82 1017.0
20260906085953 22 22 4.8 8.0 0.00 0.00 0.00 82 1017.0
20260906085452 22 54 3.2 4.8 0.00 0.00 0.00 82 1016.9
20260906084951 22 117 4.8 4.8 0.00 0.00 0.00 81 1016.9
20260906084446 22 83 4.8 4.8 0.00 0.00 0.00 82 1016.9
20260906083945 22 26 1.6 3.2 0.00 0.00 0.00 82 1017.1
20260906083441 22 40 3.2 3.2 0.00 0.00 0.00 82 1017.0
20260906082940 22 18 1.6 1.6 0.00 0.00 0.00 82 1016.9
20260906082436 22 30 4.8 8.0 0.00 0.00 0.00 82 1017.0
20260906081931 22 24 1.6 1.6 0.00 0.00 0.00 81 1017.0
20260906081426 22 26 4.8 8.0 0.00 0.00 0.00 81 1017.1
20260906080923 22 22 4.8 4.8 0.00 0.00 0.00 81 1016.7
20260906080419 22 36 3.2 3.2 0.00 0.00 0.00 81 1017.1
20260906075919 22 35 4.8 4.8 0.00 0.00 0.00 82 1017.0
20260906075414 22 66 6.4 8.0 0.00 0.00 0.00 82 1017.0
20260906074909 22 26 1.6 1.6 0.00 0.00 0.00 82 1017.1
20260906074408 22 82 0.0 1.6 0.00 0.00 0.00 82 1017.1
20260906073907 22 104 3.2 4.8 0.00 0.00 0.00 83 1017.2
20260906073402 22 127 1.6 3.2 0.00 0.00 0.00 83 1017.2
20260906072859 22 25 1.6 3.2 0.00 0.00 0.00 83 1017.0
20260906072354 22 57 1.6 1.6 0.00 0.00 0.00 83 1017.1
20260906071850 22 33 3.2 3.2 0.00 0.00 0.00 83 1017.3
20260906071345 22 76 4.8 8.0 0.00 0.00 0.00 83 1017.3
20260906070841 22 16 3.2 3.2 0.00 0.00 0.00 83 1017.0
20260906070337 22 70 4.8 9.7 0.00 0.00 0.00 83 1017.1
20260906065832 22 36 8.0 11.3 0.00 0.00 0.00 82 1017.4
20260906065326 23 97 4.8 8.0 0.00 0.00 0.00 83 1017.0
20260906064823 23 22 1.6 1.6 0.00 0.00 0.00 82 1017.3
20260906064319 23 20 1.6 3.2 0.00 0.00 0.00 82 1017.2
20260906063818 22 45 3.2 8.0 0.00 0.00 0.00 83 1017.0
20260906063314 22 64 6.4 9.7 0.00 0.00 0.00 83 1017.3
20260906062809 22 25 6.4 9.7 0.00 0.00 0.00 83 1017.2
20260906062308 22 106 3.2 4.8 0.00 0.00 0.00 83 1017.4
20260906061804 22 30 3.2 3.2 0.00 0.00 0.00 83 1017.1
20260906061300 22 2 4.8 8.0 0.00 0.00 0.00 84 1017.2
20260906060755 22 18 6.4 9.7 0.00 0.00 0.00 84 1017.4
20260906060253 22 60 6.4 9.7 0.00 0.00 0.00 85 1017.1
20260906055748 22 0 4.8 8.0 0.00 0.00 0.00 85 1017.2
20260906055243 22 25 6.4 12.9 0.00 0.00 0.00 86 1017.3
20260906054738 22 41 6.4 11.3 0.00 0.00 0.00 86 1017.1
20260906054234 22 38 6.4 8.0 0.00 0.00 0.00 86 1017.1
20260906053730 22 345 4.8 8.0 0.00 0.00 0.00 86 1017.0
20260906053226 22 43 11.3 14.5 0.00 0.00 0.00 87 1017.0
20260906052721 22 26 6.4 9.7 0.00 0.00 0.00 87 1016.9
20260906052217 22 35 14.5 17.7 0.00 0.00 0.00 87 1017.1
20260906051714 22 24 4.8 8.0 0.00 0.00 0.00 87 1016.7
20260906051213 22 35 6.4 9.7 0.00 0.00 0.00 87 1016.7
20260906050708 22 32 11.3 14.5 0.00 0.00 0.00 87 1016.9
20260906050203 22 39 4.8 8.0 0.00 0.00 0.00 87 1016.9
20260906045702 22 24 4.8 4.8 0.00 0.00 0.00 87 1016.7
20260906045157 22 50 4.8 9.7 0.00 0.00 0.00 88 1016.6
20260906044653 22 30 4.8 4.8 0.00 0.00 0.00 88 1016.5
20260906044148 22 53 8.0 12.9 0.00 0.00 0.00 88 1016.5
20260906043644 22 27 11.3 16.1 0.00 0.00 0.00 88 1016.4
20260906043139 22 75 8.0 11.3 0.00 0.00 0.00 88 1016.4
20260906042639 22 100 3.2 4.8 0.00 0.00 0.00 88 1016.2
20260906042133 22 51 12.9 16.1 0.00 0.00 0.00 88 1016.1
20260906041629 22 24 8.0 9.7 0.00 0.00 0.00 87 1016.2
20260906041124 22 12 9.7 12.9 0.00 0.00 0.00 87 1016.3
20260906040620 22 36 9.7 11.3 0.00 0.00 0.00 87 1016.2
20260906040115 22 72 4.8 4.8 0.00 0.00 0.00 87 1016.0
20260906035610 22 358 11.3 14.5 0.00 0.00 0.00 87 1016.2
20260906035106 22 38 6.4 12.9 0.00 0.00 0.00 87 1016.1
20260906034605 22 25 8.0 12.9 0.00 0.00 0.00 87 1016.0
20260906034100 22 42 11.3 12.9 0.00 0.00 0.00 87 1016.0
20260906033556 22 60 9.7 14.5 0.00 0.00 0.00 87 1016.0
20260906033051 22 64 4.8 8.0 0.00 0.00 0.00 87 1016.1
20260906032547 22 41 8.0 11.3 0.00 0.00 0.00 87 1016.3
20260906032042 22 21 3.2 3.2 0.00 0.00 0.00 87 1016.3
20260906031537 22 46 9.7 16.1 0.00 0.00 0.00 86 1016.1
20260906031033 22 9 4.8 8.0 0.00 0.00 0.00 86 1016.0
20260906030532 22 353 14.5 17.7 0.00 0.00 0.00 86 1015.8
20260906030032 22 39 4.8 4.8 0.00 0.00 0.00 86 1016.0
20260906025532 22 38 6.4 9.7 0.00 0.00 0.00 87 1016.0
20260906025030 22 25 8.0 12.9 0.00 0.00 0.00 86 1016.0
20260906024526 22 38 3.2 4.8 0.00 0.00 0.00 86 1015.8
20260906024025 22 31 14.5 17.7 0.00 0.00 0.00 86 1016.0
20260906023522 22 61 6.4 9.7 0.00 0.00 0.00 85 1015.7
20260906023016 22 43 12.9 17.7 0.00 0.00 0.00 85 1016.0
20260906022512 22 39 11.3 20.9 0.00 0.00 0.00 85 1016.0
20260906022007 22 61 8.0 9.7 0.00 0.00 0.00 85 1016.0
20260906021502 22 49 12.9 16.1 0.00 0.00 0.00 85 1016.2
20260906020956 22 82 9.7 14.5 0.00 0.00 0.00 85 1016.1
20260906020450 23 33 3.2 3.2 0.00 0.00 0.00 84 1016.2
20260906015950 22 10 3.2 3.2 0.00 0.00 0.00 85 1016.2
20260906015449 22 14 4.8 9.7 0.00 0.00 0.00 85 1016.3
20260906014949 22 39 6.4 9.7 0.00 0.00 0.00 84 1016.2
20260906014449 22 42 14.5 22.5 0.00 0.00 0.00 84 1016.2
20260906013946 22 7 6.4 9.7 0.00 0.00 0.00 84 1016.0
20260906013441 22 47 9.7 14.5 0.00 0.00 0.00 83 1016.0
20260906012937 22 44 4.8 4.8 0.00 0.00 0.00 84 1015.9
20260906012437 22 359 9.7 12.9 0.00 0.00 0.00 84 1015.9
20260906011936 22 39 4.8 4.8 0.00 0.00 0.00 85 1015.8
20260906011432 22 36 4.8 4.8 0.00 0.00 0.00 85 1016.1
20260906010927 22 11 8.0 11.3 0.00 0.00 0.00 85 1015.9
20260906010422 22 340 4.8 4.8 0.00 0.00 0.00 84 1015.8
20260906005918 22 22 3.2 8.0 0.00 0.00 0.00 84 1015.5
20260906005417 22 48 8.0 17.7 0.00 0.00 0.00 84 1015.5
20260906004916 22 36 1.6 1.6 0.00 0.00 0.00 85 1015.4
20260906004410 22 28 6.4 11.3 0.00 0.00 0.00 85 1015.3
20260906003906 22 32 1.6 3.2 0.00 0.00 0.00 85 1015.4
20260906003401 22 65 11.3 16.1 0.00 0.00 0.00 84 1015.4
20260906002857 22 39 3.2 4.8 0.00 0.00 0.00 84 1015.6
20260906002356 22 6 11.3 12.9 0.00 0.00 0.00 84 1015.5
20260906001852 22 50 8.0 9.7 0.00 0.00 0.00 85 1015.4
20260906001347 22 4 8.0 14.5 0.00 0.00 0.00 85 1015.5
20260906000842 22 2 8.0 11.3 0.00 0.00 0.00 85 1015.2
20260906000342 22 26 4.8 11.3 0.00 0.00 0.00 85 1015.3
20260905235842 22 13 4.8 8.0 0.00 0.00 0.00 84 1015.3
20260905235337 22 352 12.9 20.9 0.00 0.00 0.00 84 1015.5
20260905234832 22 342 3.2 4.8 0.00 0.00 0.00 83 1015.4
20260905234327 22 50 4.8 8.0 0.00 0.00 0.00 83 1015.6
20260905233822 22 327 8.0 11.3 0.00 0.00 0.00 83 1015.4
20260905233317 22 315 9.7 16.1 0.00 0.00 0.00 83 1015.5
20260905232816 22 18 6.4 9.7 0.00 0.00 0.00 84 1015.5
20260905232313 22 40 3.2 3.2 0.00 0.00 0.00 83 1015.3
20260905231808 22 49 11.3 12.9 0.00 0.00 0.00 83 1015.3
20260905231303 23 16 4.8 4.8 0.00 0.00 0.00 83 1015.1
20260905230800 23 28 4.8 8.0 0.00 0.00 0.00 84 1015.2
20260905230257 23 353 8.0 12.9 0.00 0.00 0.00 84 1015.1
20260905225757 23 47 9.7 17.7 0.00 0.00 0.00 84 1015.0
20260905225252 23 0 6.4 11.3 0.00 0.00 0.00 84 1015.2
20260905224751 23 59 19.3 29.0 0.00 0.00 0.00 83 1015.1
20260905224247 23 351 3.2 4.8 0.00 0.00 0.00 83 1015.2
20260905223743 23 73 3.2 3.2 0.00 0.00 0.00 83 1015.4
20260905223239 23 54 9.7 14.5 0.00 0.00 0.00 82 1015.3
20260905222735 24 2 8.0 11.3 0.00 0.00 0.00 81 1015.5
20260905222234 24 27 3.2 4.8 0.00 0.00 0.00 82 1015.0
20260905221730 25 56 8.0 14.5 0.00 0.00 0.00 80 1014.8
20260905221227 25 4 9.7 14.5 0.00 0.00 0.00 80 1015.0
20260905220722 24 55 1.6 3.2 0.00 0.00 0.00 81 1015.1
20260905220218 25 33 4.8 9.7 0.00 0.00 0.00 80 1015.1
20260905215718 25 27 16.1 20.9 0.00 0.00 0.00 78 1014.9
20260905215214 25 36 6.4 8.0 0.00 0.00 0.00 79 1015.0
20260905214709 25 18 3.2 3.2 0.00 0.00 0.00 79 1014.8
20260905214204 25 339 9.7 12.9 0.00 0.00 0.00 78 1014.7
20260905213700 25 43 6.4 9.7 0.00 0.00 0.00 79 1014.8
20260905213155 25 28 11.3 16.1 0.00 0.00 0.00 79 1014.7
20260905212650 25 50 1.6 3.2 0.00 0.00 0.00 78 1014.8
20260905212150 25 339 8.0 9.7 0.00 0.00 0.00 78 1014.8
20260905211644 25 8 8.0 11.3 0.00 0.00 0.00 78 1014.6
20260905211140 25 27 11.3 16.1 0.00 0.00 0.00 79 1014.7
20260905210637 25 4 4.8 8.0 0.00 0.00 0.00 78 1014.7
20260905210136 25 57 6.4 9.7 0.00 0.00 0.00 78 1014.7
20260905205635 25 48 4.8 8.0 0.00 0.00 0.00 77 1014.6
20260905205130 25 30 8.0 11.3 0.00 0.00 0.00 78 1014.6
20260905204629 25 340 8.0 14.5 0.00 0.00 0.00 78 1014.8
20260905204125 26 39 9.7 12.9 0.00 0.00 0.00 77 1014.7
20260905203625 26 46 3.2 8.0 0.00 0.00 0.00 76 1014.6
20260905203120 25 62 16.1 24.1 0.00 0.00 0.00 78 1014.7
20260905202615 25 0 1.6 1.6 0.00 0.00 0.00 77 1014.8
20260905202110 26 13 4.8 8.0 0.00 0.00 0.00 75 1014.8
20260905201606 25 52 4.8 9.7 0.00 0.00 0.00 77 1014.7
20260905201106 25 63 11.3 12.9 0.00 0.00 0.00 78 1014.9
20260905200602 25 344 3.2 3.2 0.00 0.00 0.00 79 1014.9
20260905200056 26 311 8.0 16.1 0.00 0.00 0.00 76 1014.9
20260905195555 26 50 3.2 4.8 0.00 0.00 0.00 77 1014.8
20260905195051 26 51 8.0 12.9 0.00 0.00 0.00 77 1015.0
20260905194550 26 31 8.0 14.5 0.00 0.00 0.00 76 1014.8
20260905194050 26 23 12.9 16.1 0.00 0.00 0.00 75 1014.9
20260905193545 26 328 4.8 8.0 0.00 0.00 0.00 77 1014.8
20260905193040 26 30 11.3 16.1 0.00 0.00 0.00 75 1015.1
20260905192535 25 71 16.1 22.5 0.00 0.00 0.00 77 1015.1
20260905192032 26 48 8.0 12.9 0.00 0.00 0.00 76 1015.1
20260905191530 26 39 16.1 20.9 0.00 0.00 0.00 75 1015.0
20260905191029 26 40 4.8 8.0 0.00 0.00 0.00 76 1014.7
20260905190528 26 0 16.1 17.7 0.00 0.00 0.00 75 1015.0
20260905190028 26 18 4.8 8.0 0.00 0.00 0.00 74 1015.2
20260905185527 26 357 8.0 11.3 0.00 0.00 0.00 75 1015.1
20260905185027 26 33 14.5 17.7 0.00 0.00 0.00 76 1015.2
20260905184527 26 354 12.9 22.5 0.00 0.00 0.00 75 1015.1
20260905184025 26 42 4.8 8.0 0.00 0.00 0.00 76 1015.1
20260905183520 26 52 11.3 12.9 0.00 0.00 0.00 75 1015.2
20260905183015 26 4 3.2 3.2 0.00 0.00 0.00 77 1015.1
20260905182514 25 26 9.7 16.1 0.00 0.00 0.00 77 1015.4
20260905182009 26 341 11.3 16.1 0.00 0.00 0.00 76 1015.2
20260905181510 26 3 8.0 12.9 0.00 0.00 0.00 77 1015.1
20260905181009 25 30 12.9 17.7 0.00 0.00 0.00 78 1015.0
20260905180504 25 5 3.2 3.2 0.00 0.00 0.00 79 1015.2
20260905175959 25 40 11.3 12.9 0.00 0.00 0.00 78 1015.3
20260905175458 25 43 9.7 14.5 0.00 0.00 0.00 78 1015.1
20260905174954 26 40 9.7 14.5 0.00 0.00 0.00 78 1015.1
20260905174449 26 47 12.9 17.7 0.00 0.00 0.00 77 1015.1
20260905173945 26 52 6.4 9.7 0.00 0.00 0.00 76 1015.2
20260905173441 25 0 4.8 4.8 0.00 0.00 0.00 78 1015.2
20260905172936 26 295 3.2 3.2 0.00 0.00 0.00 78 1015.1
20260905172434 26 1 8.0 11.3 0.00 0.00 0.00 78 1015.2
20260905171930 26 11 4.8 4.8 0.00 0.00 0.00 76 1015.1
20260905171426 26 71 4.8 8.0 0.00 0.00 0.00 78 1015.0
20260905170923 26 11 11.3 16.1 0.00 0.00 0.00 78 1015.0
20260905170418 26 16 11.3 17.7 0.00 0.00 0.00 78 1015.2
20260905165918 25 292 3.2 8.0 0.00 0.00 0.00 79 1015.3
20260905165414 26 21 8.0 16.1 0.00 0.00 0.00 77 1015.2
20260905164909 26 343 3.2 4.8 0.00 0.00 0.00 78 1015.1
20260905164408 26 43 8.0 14.5 0.00 0.00 0.00 78 1015.3
20260905163903 26 356 9.7 11.3 0.00 0.00 0.00 77 1015.3
20260905163401 26 39 6.4 9.7 0.00 0.00 0.00 76 1015.3
20260905162856 26 62 3.2 4.8 0.00 0.00 0.00 76 1015.3
20260905162355 26 43 9.7 14.5 0.00 0.00 0.00 77 1015.1
20260905161850 26 19 6.4 8.0 0.00 0.00 0.00 77 1015.2
20260905161350 26 68 11.3 12.9 0.00 0.00 0.00 77 1015.2
20260905160848 26 60 3.2 3.2 0.00 0.00 0.00 77 1015.1
20260905160342 26 77 8.0 11.3 0.00 0.00 0.00 78 1015.0
20260905155837 26 22 1.6 3.2 0.00 0.00 0.00 79 1015.0
20260905155337 26 352 8.0 9.7 0.00 0.00 0.00 79 1015.0
20260905154836 26 14 4.8 4.8 0.00 0.00 0.00 80 1014.9
20260905154332 25 39 6.4 9.7 0.00 0.00 0.00 81 1014.9
20260905153827 25 84 6.4 8.0 0.00 0.00 0.00 80 1014.8
20260905153324 25 69 6.4 8.0 0.00 0.00 0.00 81 1014.8
20260905152823 26 17 9.7 16.1 0.00 0.00 0.00 80 1014.7
20260905152322 26 57 9.7 12.9 0.00 0.00 0.00 78 1014.8
20260905151818 26 56 9.7 17.7 0.00 0.00 0.00 79 1014.6
20260905151313 26 68 8.0 11.3 0.00 0.00 0.00 78 1014.6
20260905150813 26 84 3.2 9.7 0.00 0.00 0.00 76 1014.6
20260905150314 26 321 6.4 11.3 0.00 0.00 0.00 76 1014.6
20260905145811 26 53 1.6 3.2 0.00 0.00 0.00 75 1014.4
20260905145310 26 352 4.8 8.0 0.00 0.00 0.00 75 1014.4
20260905144809 27 49 9.7 11.3 0.00 0.00 0.00 75 1014.3
20260905144305 27 357 4.8 9.7 0.00 0.00 0.00 75 1014.3
20260905143804 26 33 8.0 11.3 0.00 0.00 0.00 78 1014.4
20260905143259 26 8 9.7 12.9 0.00 0.00 0.00 79 1014.2
20260905142757 25 31 8.0 11.3 0.00 0.00 0.00 80 1014.2
20260905142251 25 40 6.4 14.5 0.00 0.00 0.00 81 1014.0
20260905141748 25 109 11.3 16.1 0.00 0.00 0.00 82 1014.0
20260905141243 25 53 11.3 14.5 0.00 0.00 0.00 83 1014.4
20260905140738 25 25 12.9 17.7 0.00 0.00 0.00 82 1013.8
20260905140233 25 11 4.8 12.9 0.00 0.00 0.00 82 1014.2
20260905135732 26 71 4.8 8.0 0.00 0.00 0.00 80 1014.0
20260905135228 26 0 9.7 20.9 0.00 0.00 0.00 81 1014.0
20260905134727 25 6 8.0 9.7 0.00 0.00 0.00 82 1014.2
20260905134227 25 15 8.0 9.7 0.00 0.00 0.00 83 1014.2
20260905133722 25 20 3.2 9.7 0.00 0.00 0.00 83 1014.3
20260905133217 25 309 8.0 12.9 0.00 0.00 0.00 83 1014.5
20260905132716 25 49 6.4 9.7 0.00 0.00 0.00 82 1014.4
20260905132212 25 358 6.4 11.3 0.00 0.00 0.00 83 1014.0
20260905131706 25 58 4.8 9.7 0.00 0.00 0.00 84 1014.1
20260905131201 25 2 3.2 4.8 0.00 0.00 0.00 85 1014.1
20260905130656 25 342 3.2 3.2 0.00 0.00 0.00 86 1013.9
20260905130150 25 13 8.0 11.3 0.00 0.00 0.00 87 1013.7
20260905125650 24 21 8.0 9.7 0.00 0.00 0.00 88 1013.8
20260905125146 24 350 8.0 12.9 0.00 0.00 0.00 89 1013.7
20260905124642 23 78 1.6 3.2 0.00 0.00 0.00 91 1013.7
20260905124137 23 354 0.0 0.0 0.00 0.00 0.00 92 1013.8
20260905123632 23 20 0.0 1.6 0.00 0.00 0.00 92 1013.7
20260905123130 23 26 1.6 4.8 0.00 0.00 0.00 92 1013.5
20260905122629 23 31 4.8 4.8 0.00 0.00 0.00 92 1013.5
20260905122124 23 1 4.8 4.8 0.00 0.00 0.00 92 1013.6
20260905121619 23 310 3.2 3.2 0.00 0.00 0.00 92 1013.4
20260905121114 23 350 3.2 4.8 0.00 0.00 0.00 92 1013.5
20260905120613 23 14 1.6 1.6 0.00 0.00 0.00 92 1013.4
20260905120108 23 332 1.6 1.6 0.00 0.00 0.00 92 1013.4
20260905115607 23 12 8.0 11.3 0.00 0.00 0.00 91 1013.3
20260905115102 23 354 1.6 1.6 0.00 0.00 0.00 91 1013.0
20260905114602 23 24 3.2 3.2 0.00 0.00 0.00 91 1012.9
20260905114101 23 324 1.6 1.6 0.00 0.00 0.00 90 1012.9
20260905113556 23 11 1.6 3.2 0.00 0.00 0.00 90 1012.6